When you browse on this site, cookies collect data to enhance your experience and personalize the content and advertising you see.
Visit our Privacy Policy to learn more. By continuing to use the site, you agree to this use of cookies and data.
  • en France
  • Liste des pays
  • À 7 jours
  • Température de l'eau
  • Carte satellitaire
  • Carte météo
  • Widgets météo
  • user-avatar
    Se connecter

    Météo par heure à Perth

    Ce jour, 20 Mars, Mercredi

    Heure Température Précipitation Vent Pression Humidité
    00:00 +25°C° 0 mm 1 m/s 756 mmHg 67%
    01:00 +25°C° 0 mm 1 m/s 756 mmHg 68%
    02:00 +23°C° 0 mm 0 m/s 756 mmHg 72%
    03:00 +23°C° 0 mm 0 m/s 756 mmHg 72%
    04:00 +22°C° 0 mm 0 m/s 756 mmHg 73%
    05:00 +22°C° 0 mm 0 m/s 756 mmHg 73%
    06:00 +23°C° 0 mm 0 m/s 756 mmHg 70%
    07:00 +24°C° 0 mm 0 m/s 756 mmHg 66%
    08:00 +25°C° 0 mm 0 m/s 756 mmHg 63%
    09:00 +29°C° 0 mm 1 m/s 756 mmHg 57%
    10:00 +31°C° 0 mm 1 m/s 756 mmHg 51%
    11:00 +34°C° 0 mm 2 m/s 756 mmHg 45%
    12:00 +34°C° 0 mm 3 m/s 756 mmHg 45%
    13:00 +34°C° 0 mm 3 m/s 755 mmHg 45%
    14:00 +34°C° 0 mm 4 m/s 755 mmHg 46%
    15:00 +33°C° 0 mm 4 m/s 755 mmHg 50%
    16:00 +30°C° 0 mm 3 m/s 755 mmHg 54%
    17:00 +29°C° 0 mm 3 m/s 755 mmHg 58%
    18:00 +28°C° 0 mm 2 m/s 755 mmHg 62%
    19:00 +27°C° 0 mm 1 m/s 755 mmHg 67%
    20:00 +25°C° 0 mm 1 m/s 756 mmHg 71%
    21:00 +26°C° 0 mm 1 m/s 756 mmHg 70%
    22:00 +26°C° 0 mm 2 m/s 756 mmHg 70%
    23:00 +26°C° 0 mm 2 m/s 756 mmHg 69%

    Demain, 21 Mars, Jeudi

    Heure Température Précipitation Vent Pression Humidité
    00:00 +26°C° 0 mm 3 m/s 755 mmHg 68%
    01:00 +26°C° 0 mm 3 m/s 755 mmHg 67%
    02:00 +26°C° 0 mm 3 m/s 755 mmHg 66%
    03:00 +26°C° 0 mm 3 m/s 755 mmHg 67%
    04:00 +26°C° 0 mm 3 m/s 755 mmHg 67%
    05:00 +25°C° 0 mm 2 m/s 755 mmHg 68%
    06:00 +26°C° 0 mm 2 m/s 755 mmHg 67%
    07:00 +26°C° 0 mm 1 m/s 755 mmHg 66%
    08:00 +26°C° 0 mm 1 m/s 755 mmHg 66%
    09:00 +28°C° 0 mm 2 m/s 755 mmHg 58%
    10:00 +31°C° 0 mm 2 m/s 755 mmHg 51%
    11:00 +34°C° 0 mm 3 m/s 755 mmHg 44%
    12:00 +34°C° 0 mm 3 m/s 755 mmHg 44%
    13:00 +34°C° 0 mm 4 m/s 754 mmHg 44%
    14:00 +34°C° 0 mm 4 m/s 754 mmHg 44%
    15:00 +33°C° 0 mm 4 m/s 754 mmHg 46%
    16:00 +32°C° 0 mm 4 m/s 754 mmHg 48%
    17:00 +30°C° 0 mm 4 m/s 753 mmHg 51%
    18:00 +29°C° 0 mm 4 m/s 754 mmHg 55%
    19:00 +28°C° 0 mm 3 m/s 755 mmHg 60%
    20:00 +26°C° 0 mm 3 m/s 755 mmHg 64%
    21:00 +26°C° 0 mm 3 m/s 756 mmHg 67%
    22:00 +25°C° 0 mm 4 m/s 756 mmHg 69%
    23:00 +25°C° 0 mm 5 m/s 757 mmHg 72%

    Après-demain, 22 Mars, Vendredi

    Heure Température Précipitation Vent Pression Humidité
    00:00 +23°C° 0 mm 4 m/s 756 mmHg 73%
    01:00 +23°C° 0 mm 4 m/s 756 mmHg 75%
    02:00 +22°C° 0 mm 3 m/s 756 mmHg 76%
    03:00 +22°C° 0 mm 4 m/s 756 mmHg 77%
    04:00 +22°C° 0 mm 4 m/s 756 mmHg 77%
    05:00 +21°C° 0 mm 4 m/s 757 mmHg 78%
    06:00 +22°C° 0 mm 4 m/s 757 mmHg 75%
    07:00 +22°C° 0 mm 4 m/s 758 mmHg 73%
    08:00 +22°C° 0 mm 5 m/s 758 mmHg 71%
    09:00 +25°C° 0 mm 5 m/s 758 mmHg 65%
    10:00 +26°C° 0 mm 5 m/s 758 mmHg 59%
    11:00 +27°C° 0 mm 5 m/s 759 mmHg 53%
    12:00 +28°C° 0 mm 5 m/s 758 mmHg 52%
    13:00 +28°C° 0 mm 6 m/s 758 mmHg 50%
    14:00 +28°C° 0 mm 6 m/s 758 mmHg 48%
    15:00 +28°C° 0 mm 6 m/s 758 mmHg 47%
    16:00 +27°C° 0 mm 5 m/s 758 mmHg 45%
    17:00 +27°C° 0 mm 5 m/s 758 mmHg 44%
    18:00 +26°C° 0 mm 5 m/s 759 mmHg 46%
    19:00 +23°C° 0 mm 6 m/s 760 mmHg 48%
    20:00 +22°C° 0 mm 6 m/s 760 mmHg 50%
    21:00 +21°C° 0 mm 6 m/s 761 mmHg 54%
    22:00 +20°C° 0 mm 6 m/s 761 mmHg 57%
    23:00 +17°C° 0 mm 6 m/s 762 mmHg 61%

    23 Mars, Samedi

    Heure Température Précipitation Vent Pression Humidité
    00:00 +17°C° 0 mm 6 m/s 762 mmHg 63%
    01:00 +16°C° 0 mm 6 m/s 762 mmHg 65%
    02:00 +15°C° 0 mm 6 m/s 762 mmHg 67%
    03:00 +15°C° 0 mm 6 m/s 762 mmHg 68%
    04:00 +14°C° 0 mm 6 m/s 762 mmHg 68%
    05:00 +14°C° 0 mm 6 m/s 762 mmHg 69%
    06:00 +14°C° 0 mm 6 m/s 762 mmHg 66%
    07:00 +15°C° 0 mm 6 m/s 762 mmHg 63%
    08:00 +15°C° 0 mm 6 m/s 763 mmHg 60%
    09:00 +17°C° 0 mm 6 m/s 763 mmHg 53%
    10:00 +20°C° 0 mm 5 m/s 763 mmHg 46%
    11:00 +22°C° 0 mm 5 m/s 763 mmHg 39%
    12:00 +23°C° 0 mm 5 m/s 762 mmHg 36%
    13:00 +25°C° 0 mm 4 m/s 761 mmHg 32%
    14:00 +26°C° 0 mm 4 m/s 760 mmHg 29%
    15:00 +27°C° 0 mm 4 m/s 760 mmHg 28%
    16:00 +27°C° 0 mm 4 m/s 760 mmHg 28%
    17:00 +27°C° 0 mm 4 m/s 759 mmHg 27%
    18:00 +25°C° 0 mm 4 m/s 760 mmHg 30%
    19:00 +23°C° 0 mm 4 m/s 760 mmHg 33%
    20:00 +21°C° 0 mm 3 m/s 761 mmHg 35%
    21:00 +20°C° 0 mm 3 m/s 761 mmHg 37%
    22:00 +20°C° 0 mm 4 m/s 761 mmHg 39%
    23:00 +19°C° 0 mm 4 m/s 761 mmHg 40%

    24 Mars, Dimanche

    Heure Température Précipitation Vent Pression Humidité
    00:00 +18°C° 0 mm 4 m/s 761 mmHg 43%
    01:00 +18°C° 0 mm 4 m/s 761 mmHg 46%
    02:00 +17°C° 0 mm 4 m/s 761 mmHg 49%
    03:00 +16°C° 0 mm 5 m/s 761 mmHg 53%
    04:00 +15°C° 0 mm 5 m/s 761 mmHg 58%
    05:00 +15°C° 0 mm 5 m/s 761 mmHg 62%
    06:00 +15°C° 0 mm 5 m/s 761 mmHg 61%
    07:00 +15°C° 0 mm 5 m/s 761 mmHg 61%
    08:00 +16°C° 0 mm 5 m/s 762 mmHg 60%
    09:00 +19°C° 0 mm 5 m/s 762 mmHg 52%
    10:00 +21°C° 0 mm 5 m/s 761 mmHg 44%
    11:00 +23°C° 0 mm 4 m/s 761 mmHg 36%
    12:00 +26°C° 0 mm 4 m/s 760 mmHg 33%
    13:00 +27°C° 0 mm 4 m/s 760 mmHg 29%
    14:00 +28°C° 0 mm 4 m/s 759 mmHg 26%
    15:00 +28°C° 0 mm 4 m/s 759 mmHg 26%
    16:00 +28°C° 0 mm 4 m/s 759 mmHg 26%
    17:00 +28°C° 0 mm 4 m/s 759 mmHg 26%
    18:00 +27°C° 0 mm 4 m/s 759 mmHg 30%
    19:00 +25°C° 0 mm 4 m/s 760 mmHg 33%
    20:00 +23°C° 0 mm 4 m/s 760 mmHg 37%
    21:00 +22°C° 0 mm 5 m/s 760 mmHg 42%
    22:00 +21°C° 0 mm 6 m/s 761 mmHg 47%
    23:00 +20°C° 0 mm 6 m/s 761 mmHg 53%

    25 Mars, Lundi

    Heure Température Précipitation Vent Pression Humidité
    00:00 +20°C° 0 mm 6 m/s 761 mmHg 57%
    01:00 +18°C° 0 mm 7 m/s 761 mmHg 61%
    02:00 +17°C° 0 mm 7 m/s 761 mmHg 65%
    03:00 +17°C° 0 mm 7 m/s 761 mmHg 67%
    04:00 +16°C° 0 mm 7 m/s 762 mmHg 69%
    05:00 +16°C° 0 mm 7 m/s 762 mmHg 71%
    06:00 +16°C° 0 mm 7 m/s 762 mmHg 69%
    07:00 +16°C° 0 mm 7 m/s 763 mmHg 68%
    08:00 +17°C° 0 mm 7 m/s 763 mmHg 66%
    09:00 +20°C° 0 mm 7 m/s 763 mmHg 58%
    10:00 +22°C° 0 mm 7 m/s 762 mmHg 51%
    11:00 +24°C° 0 mm 7 m/s 762 mmHg 43%
    12:00 +26°C° 0 mm 6 m/s 761 mmHg 39%
    13:00 +28°C° 0 mm 6 m/s 760 mmHg 35%
    14:00 +29°C° 0 mm 6 m/s 760 mmHg 31%
    15:00 +29°C° 0 mm 6 m/s 759 mmHg 31%
    16:00 +29°C° 0 mm 5 m/s 759 mmHg 30%
    17:00 +29°C° 0 mm 5 m/s 759 mmHg 30%
    18:00 +28°C° 0 mm 5 m/s 759 mmHg 32%
    19:00 +26°C° 0 mm 5 m/s 760 mmHg 34%
    20:00 +24°C° 0 mm 6 m/s 760 mmHg 36%
    21:00 +24°C° 0 mm 6 m/s 760 mmHg 36%
    22:00 +24°C° 0 mm 6 m/s 760 mmHg 35%
    23:00 +23°C° 0 mm 7 m/s 760 mmHg 34%
    Voir plus